When you browse on this site, cookies collect data to enhance your experience and personalize the content and advertising you see.
Visit our Privacy Policy to learn more. By continuing to use the site, you agree to this use of cookies and data.
  • In Czech Republic
  • List of Countries
  • For 7 days
  • Water Temperature
  • Satellite Maps
  • Weather Map
  • Weather Widgets
  • user-avatar
    Login

    Hourly Weather Tanger

    Today, 26 June, Wednesday

    Time Temperature Precipitation Wind Pressure Humidity
    00:00 +19°C° 0 mm 0 mps 761 mmHg 81%
    01:00 +19°C° 0 mm 0 mps 761 mmHg 82%
    02:00 +19°C° 0 mm 0 mps 761 mmHg 83%
    03:00 +19°C° 0 mm 0 mps 760 mmHg 84%
    04:00 +19°C° 0 mm 0 mps 760 mmHg 83%
    05:00 +19°C° 0 mm 0 mps 761 mmHg 82%
    06:00 +19°C° 0 mm 0 mps 761 mmHg 81%
    07:00 +21°C° 0 mm 0 mps 761 mmHg 72%
    08:00 +23°C° 0 mm 0 mps 761 mmHg 64%
    09:00 +27°C° 0 mm 1 mps 761 mmHg 55%
    10:00 +28°C° 0 mm 1 mps 761 mmHg 53%
    11:00 +29°C° 0 mm 2 mps 761 mmHg 51%
    12:00 +30°C° 0 mm 3 mps 761 mmHg 48%
    13:00 +30°C° 0 mm 3 mps 761 mmHg 49%
    14:00 +30°C° 0 mm 4 mps 760 mmHg 50%
    15:00 +30°C° 0 mm 4 mps 760 mmHg 50%
    16:00 +29°C° 0 mm 4 mps 760 mmHg 54%
    17:00 +28°C° 0 mm 4 mps 760 mmHg 58%
    18:00 +27°C° 0 mm 3 mps 759 mmHg 62%
    19:00 +25°C° 0 mm 3 mps 760 mmHg 71%
    20:00 +24°C° 0 mm 3 mps 761 mmHg 80%
    21:00 +21°C° 0 mm 2 mps 761 mmHg 88%
    22:00 +21°C° 0 mm 2 mps 761 mmHg 89%
    23:00 +22°C° 0 mm 1 mps 761 mmHg 90%

    Tomorrow, 27 June, Thursday

    Time Temperature Precipitation Wind Pressure Humidity
    00:00 +22°C° 0 mm 1 mps 761 mmHg 91%
    01:00 +22°C° 0 mm 1 mps 761 mmHg 91%
    02:00 +20°C° 0 mm 2 mps 761 mmHg 91%
    03:00 +20°C° 0 mm 2 mps 760 mmHg 92%
    04:00 +20°C° 0 mm 2 mps 760 mmHg 91%
    05:00 +20°C° 0 mm 2 mps 760 mmHg 90%
    06:00 +22°C° 0 mm 1 mps 761 mmHg 90%
    07:00 +23°C° 0 mm 1 mps 761 mmHg 84%
    08:00 +24°C° 0 mm 1 mps 761 mmHg 78%
    09:00 +25°C° 0 mm 1 mps 761 mmHg 73%
    10:00 +26°C° 0 mm 2 mps 761 mmHg 67%
    11:00 +27°C° 0 mm 3 mps 761 mmHg 61%
    12:00 +29°C° 0 mm 4 mps 761 mmHg 55%
    13:00 +29°C° 0 mm 4 mps 761 mmHg 56%
    14:00 +29°C° 0 mm 4 mps 761 mmHg 56%
    15:00 +29°C° 0 mm 5 mps 760 mmHg 57%
    16:00 +28°C° 0 mm 4 mps 760 mmHg 59%
    17:00 +27°C° 0 mm 4 mps 760 mmHg 61%
    18:00 +26°C° 0 mm 4 mps 760 mmHg 63%
    19:00 +25°C° 0 mm 3 mps 760 mmHg 67%
    20:00 +22°C° 0 mm 3 mps 760 mmHg 72%
    21:00 +21°C° 0 mm 2 mps 761 mmHg 76%
    22:00 +20°C° 0 mm 2 mps 761 mmHg 77%
    23:00 +21°C° 0 mm 1 mps 761 mmHg 78%

    Day after tomorrow, 28 June, Friday

    Time Temperature Precipitation Wind Pressure Humidity
    00:00 +21°C° 0 mm 1 mps 761 mmHg 79%
    01:00 +21°C° 0 mm 1 mps 760 mmHg 80%
    02:00 +21°C° 0 mm 1 mps 760 mmHg 80%
    03:00 +20°C° 0 mm 1 mps 760 mmHg 81%
    04:00 +21°C° 0 mm 1 mps 759 mmHg 80%
    05:00 +21°C° 0 mm 1 mps 759 mmHg 80%
    06:00 +21°C° 0 mm 1 mps 759 mmHg 79%
    07:00 +23°C° 0 mm 1 mps 759 mmHg 72%
    08:00 +26°C° 0 mm 1 mps 759 mmHg 65%
    09:00 +28°C° 0 mm 2 mps 759 mmHg 58%
    10:00 +29°C° 0 mm 3 mps 759 mmHg 55%
    11:00 +30°C° 0 mm 4 mps 759 mmHg 52%
    12:00 +32°C° 0 mm 5 mps 759 mmHg 50%
    13:00 +32°C° 0 mm 6 mps 758 mmHg 51%
    14:00 +32°C° 0 mm 6 mps 758 mmHg 53%
    15:00 +32°C° 0 mm 7 mps 757 mmHg 54%
    16:00 +30°C° 0 mm 6 mps 757 mmHg 56%
    17:00 +29°C° 0 mm 6 mps 757 mmHg 59%
    18:00 +28°C° 0 mm 6 mps 757 mmHg 61%
    19:00 +27°C° 0 mm 5 mps 757 mmHg 70%
    20:00 +25°C° 0 mm 4 mps 758 mmHg 78%
    21:00 +22°C° 0 mm 3 mps 758 mmHg 87%
    22:00 +22°C° 0 mm 3 mps 758 mmHg 88%
    23:00 +21°C° 0 mm 3 mps 759 mmHg 90%

    29 June, Saturday

    Time Temperature Precipitation Wind Pressure Humidity
    00:00 +21°C° 0 mm 2 mps 759 mmHg 91%
    01:00 +21°C° 0 mm 2 mps 758 mmHg 91%
    02:00 +21°C° 0 mm 2 mps 758 mmHg 91%
    03:00 +21°C° 0 mm 2 mps 758 mmHg 92%
    04:00 +21°C° 0 mm 2 mps 758 mmHg 91%
    05:00 +21°C° 0 mm 2 mps 758 mmHg 90%
    06:00 +21°C° 0 mm 2 mps 758 mmHg 90%
    07:00 +24°C° 0 mm 2 mps 758 mmHg 80%
    08:00 +26°C° 0 mm 2 mps 758 mmHg 71%
    09:00 +28°C° 0 mm 2 mps 758 mmHg 62%
    10:00 +29°C° 0 mm 2 mps 758 mmHg 56%
    11:00 +30°C° 0 mm 3 mps 758 mmHg 51%
    12:00 +33°C° 0 mm 4 mps 758 mmHg 45%
    13:00 +33°C° 0 mm 5 mps 758 mmHg 45%
    14:00 +33°C° 0 mm 5 mps 757 mmHg 45%
    15:00 +33°C° 0 mm 6 mps 757 mmHg 45%
    16:00 +32°C° 0 mm 6 mps 757 mmHg 48%
    17:00 +30°C° 0 mm 5 mps 757 mmHg 51%
    18:00 +30°C° 0 mm 4 mps 757 mmHg 53%
    19:00 +28°C° 0 mm 4 mps 757 mmHg 63%
    20:00 +26°C° 0 mm 4 mps 758 mmHg 74%
    21:00 +22°C° 0 mm 3 mps 759 mmHg 84%
    22:00 +22°C° 0 mm 3 mps 759 mmHg 85%
    23:00 +22°C° 0 mm 3 mps 759 mmHg 86%

    30 June, Sunday

    Time Temperature Precipitation Wind Pressure Humidity
    00:00 +21°C° 0 mm 3 mps 759 mmHg 87%
    01:00 +21°C° 0 mm 3 mps 759 mmHg 87%
    02:00 +21°C° 0 mm 2 mps 759 mmHg 87%
    03:00 +21°C° 0 mm 2 mps 759 mmHg 88%
    04:00 +21°C° 0 mm 2 mps 759 mmHg 86%
    05:00 +23°C° 0 mm 1 mps 759 mmHg 85%
    06:00 +23°C° 0 mm 1 mps 759 mmHg 84%
    07:00 +25°C° 0 mm 1 mps 759 mmHg 75%
    08:00 +27°C° 0 mm 2 mps 760 mmHg 65%
    09:00 +29°C° 0 mm 2 mps 760 mmHg 56%
    10:00 +30°C° 0 mm 2 mps 760 mmHg 54%
    11:00 +31°C° 0 mm 3 mps 760 mmHg 51%
    12:00 +33°C° 0 mm 3 mps 761 mmHg 48%
    13:00 +33°C° 0 mm 3 mps 760 mmHg 48%
    14:00 +33°C° 0 mm 3 mps 760 mmHg 47%
    15:00 +33°C° 0 mm 3 mps 760 mmHg 47%
    16:00 +31°C° 0 mm 3 mps 759 mmHg 49%
    17:00 +30°C° 0 mm 2 mps 759 mmHg 51%
    18:00 +29°C° 0 mm 2 mps 759 mmHg 54%
    19:00 +27°C° 0 mm 2 mps 760 mmHg 61%
    20:00 +26°C° 0 mm 1 mps 760 mmHg 68%
    21:00 +24°C° 0 mm 1 mps 761 mmHg 75%
    22:00 +23°C° 0 mm 1 mps 761 mmHg 78%
    23:00 +23°C° 0 mm 2 mps 761 mmHg 81%

    1 July, Monday

    Time Temperature Precipitation Wind Pressure Humidity
    00:00 +21°C° 0 mm 2 mps 761 mmHg 84%
    01:00 +21°C° 0 mm 2 mps 761 mmHg 85%
    02:00 +20°C° 0 mm 2 mps 761 mmHg 87%
    03:00 +20°C° 0 mm 2 mps 760 mmHg 88%
    04:00 +20°C° 0 mm 2 mps 760 mmHg 87%
    05:00 +20°C° 0 mm 2 mps 761 mmHg 87%
    06:00 +20°C° 0 mm 2 mps 761 mmHg 86%
    07:00 +22°C° 0 mm 3 mps 761 mmHg 77%
    08:00 +25°C° 0 mm 3 mps 761 mmHg 67%
    09:00 +27°C° 0 mm 3 mps 761 mmHg 57%
    10:00 +28°C° 0 mm 3 mps 761 mmHg 55%
    11:00 +29°C° 0 mm 4 mps 761 mmHg 52%
    12:00 +30°C° 0 mm 4 mps 760 mmHg 49%
    13:00 +30°C° 0 mm 4 mps 760 mmHg 49%
    14:00 +30°C° 0 mm 4 mps 759 mmHg 49%
    15:00 +30°C° 0 mm 4 mps 759 mmHg 49%
    16:00 +29°C° 0 mm 3 mps 759 mmHg 51%
    17:00 +29°C° 0 mm 3 mps 758 mmHg 53%
    18:00 +28°C° 0 mm 3 mps 758 mmHg 55%
    19:00 +26°C° 0 mm 3 mps 758 mmHg 64%
    20:00 +24°C° 0 mm 2 mps 759 mmHg 73%
    21:00 +21°C° 0 mm 2 mps 759 mmHg 81%
    22:00 +21°C° 0 mm 2 mps 759 mmHg 83%
    23:00 +20°C° 0 mm 2 mps 760 mmHg 84%
    Show more